This demonstration page uses our WeatherBlox Daily Observations layout. Learn more.

Left ArrowRight Arrow

31.84235, -102.49876

Hourly Observations for January 28, 2022

Temp ( °F °C ) Dew Point ( °F °C ) Humidity (%) Winds ( mph kmh ) Pressure ( in mb ) Visibility ( mi km ) Precip ( " mm )
12:53 am 00:53 Partly Cloudy 34 1.1 23 -5 64 64 ENE 14 22 30.45 1031 10 16 0.00 0.00
1:53 am 01:53 Clear 32 0 23 -5 69 69 NE 13 20 30.47 1032 10 16 0.00 0.00
2:53 am 02:53 Clear 31 -0.6 23 -5 72 72 NNE 10 17 30.49 1032 10 16 0.00 0.00
3:53 am 03:53 Mostly Clear 30 -1.1 23 -5 75 75 NNE 12 19 30.50 1033 10 16 0.00 0.00
4:53 am 04:53 Clear 30 -1.1 22 -5.6 72 72 N 12 19 30.51 1033 10 16 0.00 0.00
5:53 am 05:53 Clear 28 -2.2 20 -6.7 72 72 N 10 17 30.52 1034 10 16 0.00 0.00
6:53 am 06:53 Clear 27 -2.8 19 -7.2 72 72 N 12 19 30.55 1035 10 16 0.00 0.00
7:53 am 07:53 Sunny 25 -3.9 18 -7.8 75 75 N 8 13 30.58 1036 10 16 0.00 0.00
8:53 am 08:53 Sunny 30 -1.1 19 -7.2 64 64 N 8 13 30.58 1036 10 16 0.00 0.00
9:53 am 09:53 Sunny 36 2.2 21 -6.1 55 55 N 8 13 30.60 1036 10 16 0.00 0.00
10:53 am 10:53 Sunny 41 5 22 -5.6 47 47 NNW 7 11 30.60 1036 10 16 0.00 0.00
11:53 am 11:53 Sunny 42 5.6 20 -6.7 41 41 VRB 3 6 30.58 1036 10 16 0.00 0.00
12:53 pm 12:53 Sunny 46 7.8 21 -6.1 37 37 W 5 7 30.55 1035 10 16 0.00 0.00
1:53 pm 13:53 Sunny 49 9.4 19 -7.2 31 31 NW 8 13 30.50 1033 10 16 0.00 0.00
2:53 pm 14:53 Sunny 49 9.4 18 -7.8 29 29 VRB 3 6 30.48 1032 10 16 0.00 0.00
3:53 pm 15:53 Sunny 51 10.6 17 -8.3 26 26 WNW 7 11 30.46 1032 10 16 0.00 0.00
4:53 pm 16:53 Sunny 51 10.6 16 -8.9 25 25 VRB 3 6 30.46 1031 10 16 0.00 0.00
5:53 pm 17:53 Sunny 50 10 16 -8.9 26 26 WNW 6 9 30.45 1031 10 16 0.00 0.00
6:53 pm 18:53 Clear 46 7.8 16 -8.9 30 30 W 3 6 30.46 1032 10 16 0.00 0.00
7:53 pm 19:53 Clear 43 6.1 15 -9.4 32 32 W 5 7 30.48 1032 10 16 0.00 0.00
8:53 pm 20:53 Clear 39 3.9 14 -10 36 36 W 5 7 30.48 1032 10 16 0.00 0.00
9:53 pm 21:53 Clear 36 2.2 13 -10.6 39 39 W 3 6 30.48 1032 10 16 0.00 0.00
10:53 pm 22:53 Clear 34 1.1 13 -10.6 42 42 W 3 6 30.47 1032 10 16 0.00 0.00
11:53 pm 23:53 Clear 32 0 13 -10.6 45 45 W 5 7 30.46 1032 10 16 0.00 0.00

Powered by AerisWeather